This is the latest recevied weather packets stored in our database for station/object KE8CZD. If no packets are shown the sender has not sent any weather packets the latest 10 day(s).
| Time | Temp. | Humidity | Pressure | Rain* | Wind** | Luminosity | Snow |
|---|---|---|---|---|---|---|---|
| 1777650884 | 7.78° C | 54% | 1010.5 hPa | 0 mm | - | - | - |
| 1777650524 | 7.78° C | 56% | 1010.6 hPa | 0 mm | - | - | - |
| 1777650164 | 7.78° C | 55% | 1010.6 hPa | 0 mm | - | - | - |
| 1777649804 | 7.78° C | 58% | 1010.5 hPa | 0 mm | - | - | - |
| 1777649445 | 7.78° C | 60% | 1010.6 hPa | 0 mm | - | - | - |
| 1777649084 | 7.78° C | 62% | 1010.7 hPa | 0 mm | - | - | - |
| 1777648724 | 7.22° C | 62% | 1010.7 hPa | 0 mm | - | - | - |
| 1777648364 | 7.22° C | 62% | 1010.8 hPa | 0 mm | - | - | - |
| 1777648004 | 7.22° C | 63% | 1010.8 hPa | 0 mm | - | - | - |
| 1777647645 | 7.22° C | 66% | 1010.8 hPa | 0 mm | - | - | - |
| 1777647284 | 6.67° C | 69% | 1010.9 hPa | 0 mm | - | - | - |
| 1777646924 | 6.67° C | 70% | 1010.9 hPa | 0 mm | - | - | - |
| 1777646564 | 6.11° C | 71% | 1011.1 hPa | 0 mm | - | - | - |
| 1777646204 | 6.11° C | 72% | 1011 hPa | 0 mm | - | - | - |
| 1777645845 | 6.11° C | 73% | 1011.1 hPa | 0 mm | - | - | - |
| 1777645484 | 5.56° C | 77% | 1011.1 hPa | 0 mm | - | - | - |
| 1777645124 | 5.56° C | 79% | 1011.2 hPa | 0 mm | - | - | - |
| 1777644764 | 5.56° C | 81% | 1011.2 hPa | 0 mm | - | - | - |
| 1777644404 | 5° C | 82% | 1011.1 hPa | 0 mm | - | - | - |
| 1777644045 | 5° C | 83% | 1011.2 hPa | 0 mm | - | - | - |
| 1777643684 | 5° C | 83% | 1011.1 hPa | 0 mm | - | - | - |
| 1777643324 | 4.44° C | 82% | 1011.2 hPa | 0 mm | - | - | - |
| 1777642964 | 4.44° C | 81% | 1011.2 hPa | 0 mm | - | - | - |
| 1777642604 | 4.44° C | 81% | 1011.3 hPa | 0 mm | - | - | - |
| 1777642245 | 5° C | 79% | 1011.2 hPa | 0 mm | - | - | - |
* Rain latest hour (hover to see other rain measurements)
** Current wind speed in m/s (hover to see current wind gust speed)